Theta_e
283 284 285 286 286 286 286 287 287 287 288 289 289 290 291 291 292 292 293 294 295 296 300 311 317 321 323 326 326 327 329 329 330 327 323 322 321 314 314 319 322 321 323
283 282 283 284 285 285 285 286 286 286 286 286 287 287 288 289 289 290 291 292 293 294 295 297 307 316 320 322 324 325 325 328 327 327 324 322 321 321 319 313 321 322 321
282 282 282 283 284 284 285 285 285 285 285 285 286 286 287 287 287 289 290 290 291 292 293 294 295 303 311 317 321 323 325 325 325 328 324 321 322 322 322 320 318 322 322
281 281 282 282 283 283 284 284 284 284 284 284 284 285 284 285 286 287 287 288 289 290 291 292 293 294 299 307 312 319 319 321 323 327 324 323 322 321 322 321 321 320 322
281 281 281 282 282 282 283 283 283 283 283 283 283 283 283 283 284 285 286 286 287 288 289 289 291 292 293 296 302 309 314 317 320 322 324 325 322 321 320 321 322 321 319
280 280 281 281 281 281 281 282 282 282 282 282 282 282 282 282 283 283 284 285 286 287 287 288 289 290 291 293 295 301 307 314 317 320 321 324 323 321 321 320 321 321 322
280 279 279 279 279 279 279 280 280 281 281 281 281 281 281 281 281 282 282 283 284 285 286 287 287 288 289 290 292 294 298 303 311 317 319 321 324 324 322 321 320 321 321
279 279 278 278 278 279 279 279 280 280 280 280 281 281 280 280 280 280 282 282 282 283 284 285 286 287 288 289 290 291 293 296 299 308 317 317 320 324 322 321 320 320 321
279 279 279 279 279 279 279 279 280 279 279 279 279 280 280 280 280 280 280 281 282 282 283 283 284 286 286 287 288 289 291 292 294 298 306 315 318 319 323 324 321 320 320
279 279 279 278 278 278 279 279 279 279 279 279 279 279 279 280 280 279 279 279 280 282 282 282 282 284 285 286 287 288 289 291 292 293 296 303 316 317 321 323 323 320 320
278 278 278 277 278 278 278 278 279 278 278 278 278 278 278 278 278 278 279 279 279 279 281 282 281 282 283 285 285 287 288 289 290 292 293 297 303 316 318 321 322 321 321
278 277 277 277 278 277 277 278 278 278 278 278 278 278 278 277 277 277 278 278 279 279 278 279 282 281 282 283 284 285 286 288 289 290 291 294 296 305 315 318 321 321 321
276 276 277 277 277 277 277 277 277 277 277 277 278 278 278 277 276 277 277 277 278 278 279 278 279 281 282 282 283 284 285 286 288 289 290 291 293 295 304 315 319 321 322
275 275 275 275 276 276 276 276 276 276 276 276 277 277 277 277 276 276 276 276 277 277 278 279 279 280 281 282 282 283 284 285 286 288 289 290 291 293 296 308 317 319 320
275 274 274 274 275 275 275 275 275 275 275 275 276 276 277 277 277 276 276 276 276 277 277 278 279 280 280 282 282 283 283 284 285 286 288 289 290 292 293 294 308 315 320
273 273 274 274 274 274 274 274 274 274 274 275 275 276 277 277 277 277 275 275 276 276 277 278 279 280 281 282 282 283 284 284 285 285 287 288 289 291 292 293 298 312 315
272 272 273 273 273 273 273 273 274 274 274 274 275 275 275 277 277 277 277 276 276 276 276 277 278 280 281 281 282 283 284 285 285 285 286 287 289 290 291 293 294 302 309
272 272 272 272 272 272 272 273 273 273 274 274 274 274 275 276 277 277 277 278 277 276 277 277 278 279 280 281 282 284 284 285 286 286 286 286 287 289 291 292 295 295 300
271 271 271 272 272 272 272 273 273 273 273 274 274 274 274 275 277 277 277 278 277 276 276 277 278 279 280 281 282 283 284 284 285 286 287 287 287 288 290 292 293 300 299
271 271 271 271 271 272 271 272 272 273 273 273 273 274 274 275 276 277 277 277 276 277 276 277 278 278 279 280 282 282 283 284 285 286 286 287 288 288 289 290 293 295 301
270 271 270 271 271 272 271 272 272 272 272 272 273 274 273 275 275 277 277 277 277 277 277 277 278 278 280 280 282 282 283 283 284 285 286 287 289 288 289 290 292 294 297
270 270 269 271 272 271 271 271 272 272 272 272 273 273 273 274 275 276 276 278 277 276 276 277 278 279 279 280 281 282 283 283 284 285 285 286 288 289 289 291 291 293 296
269 269 269 269 270 270 270 270 271 271 272 272 273 273 273 274 275 275 276 277 277 276 276 276 278 278 279 279 280 282 283 283 284 284 284 285 287 289 290 291 292 293 293
269 269 269 269 269 270 270 270 270 270 271 271 272 273 273 273 274 275 275 276 276 275 276 277 277 278 278 279 282 282 282 282 283 283 283 285 286 289 290 290 292 294 296
269 268 268 268 268 269 270 270 270 270 271 271 272 272 272 272 273 274 275 275 276 275 276 277 277 278 278 279 281 281 281 282 282 284 284 286 287 288 291 291 293 297 298
268 268 268 268 268 269 270 270 270 270 270 271 271 272 271 271 271 273 275 275 276 277 278 278 277 277 278 280 280 280 281 281 282 283 285 286 288 291 291 292 294 298 301
Wind_Speed
6 8 9 10 12 14 16 18 20 22 22 24 25 25 25 23 22 22 21 21 20 19 19 18 17 15 18 27 33 35 42 47 41 32 27 25 26 26 33 38 38 37 31
6 9 10 12 14 17 18 20 22 23 25 26 25 26 29 29 27 26 25 25 24 23 20 20 20 20 21 19 24 25 26 29 39 35 30 17 23 24 27 37 40 39 36
7 9 11 14 16 18 21 22 23 24 25 26 27 27 26 27 29 30 28 26 27 27 24 23 22 21 22 23 23 22 27 25 38 38 27 13 15 21 25 31 39 40 39
5 8 11 14 17 18 20 21 23 24 25 27 26 27 28 29 31 33 33 31 28 29 29 27 25 24 24 25 24 24 21 21 22 38 42 29 14 21 14 26 32 37 38
4 7 11 13 15 17 19 21 22 23 25 26 27 26 26 28 30 31 33 33 30 27 29 30 29 28 26 27 29 28 25 23 25 24 39 48 35 24 19 18 26 31 38
4 7 10 13 15 17 19 20 22 23 24 25 26 26 27 28 29 31 32 32 33 31 27 29 30 30 31 29 30 33 32 30 28 31 27 43 42 37 30 26 22 32 32
4 7 11 14 16 17 20 22 23 24 24 26 27 27 27 28 26 28 29 31 32 31 30 28 30 31 31 33 31 33 35 33 34 31 33 29 45 48 42 33 29 24 25
6 8 11 14 16 19 21 23 25 26 26 26 26 27 28 26 27 26 28 29 29 30 31 31 30 31 32 33 35 34 36 36 35 34 33 31 28 51 46 42 34 28 26
7 9 12 15 18 19 21 23 25 26 27 28 28 28 28 28 28 28 28 27 28 29 30 31 32 32 32 33 34 37 36 36 38 38 37 38 29 34 46 50 42 40 30
8 10 13 15 17 19 21 22 23 25 27 27 28 30 30 28 28 28 28 27 28 29 30 31 30 31 32 32 33 35 37 38 39 39 39 39 38 27 40 51 49 44 42
9 12 14 16 18 19 20 22 23 25 26 28 30 31 30 30 28 28 28 28 28 28 30 31 31 30 30 31 32 33 35 38 39 39 42 43 40 40 25 46 49 49 44
10 12 15 17 18 20 21 22 23 26 27 29 30 32 31 29 27 27 29 30 31 30 29 29 31 31 31 30 31 32 31 35 37 39 39 44 43 46 40 25 50 50 49
10 12 15 18 19 20 21 22 23 26 27 29 31 33 32 30 28 29 30 31 31 31 31 29 29 30 31 31 32 31 32 34 37 38 39 42 42 46 46 40 32 52 57
10 12 16 18 19 21 23 24 24 25 28 29 31 33 33 32 31 30 30 30 29 31 31 31 31 30 31 32 32 32 33 34 36 40 45 43 45 48 48 52 39 43 55
10 13 18 20 21 23 24 24 25 26 29 31 31 33 33 32 32 31 30 30 30 30 30 32 31 31 31 32 32 32 34 37 39 40 45 48 49 49 51 49 56 30 54
12 16 19 21 22 24 26 27 27 28 29 31 32 33 33 33 33 33 32 31 30 30 30 31 31 33 32 32 33 34 38 41 43 45 43 46 49 52 52 55 56 57 36
16 19 20 22 23 24 26 29 29 29 30 31 32 33 34 35 33 34 33 31 31 30 31 31 31 33 33 32 33 35 38 42 44 47 49 47 49 50 52 56 56 60 61
18 20 21 22 22 24 25 28 28 29 30 31 32 35 35 34 34 35 34 34 33 32 32 33 31 33 33 32 33 35 38 41 46 48 50 50 52 51 47 48 47 60 62
18 20 21 22 23 24 26 27 28 28 30 31 33 36 35 35 35 35 35 35 36 34 33 30 31 32 34 32 34 35 39 43 46 48 49 52 53 56 52 48 54 45 55
20 21 21 21 22 23 25 26 27 28 30 32 34 35 35 34 34 34 36 37 35 34 30 31 29 30 34 32 32 35 37 43 45 46 50 50 55 54 52 51 51 53 55
20 21 23 23 23 23 25 27 27 28 30 32 33 35 35 33 31 34 37 38 36 34 34 32 32 33 32 34 34 35 37 43 46 46 48 50 50 54 57 56 55 60 62
21 21 22 23 22 23 26 28 28 28 30 33 33 36 35 34 31 34 37 36 35 36 37 34 38 38 39 34 37 35 38 41 45 51 52 56 53 53 54 56 64 66 57
20 20 21 23 23 23 25 28 28 28 31 33 34 36 36 33 33 34 37 38 36 37 38 39 41 43 43 41 38 38 40 42 46 52 55 54 54 53 54 55 58 57 63
21 21 22 23 25 24 26 26 28 28 30 33 33 35 37 34 35 35 36 36 37 37 40 42 42 43 45 45 40 44 44 45 47 51 52 55 56 50 54 54 54 57 58
22 22 22 24 25 25 27 26 26 26 28 32 32 34 35 37 38 37 36 35 34 33 38 39 39 41 43 47 46 42 45 48 45 43 47 45 47 53 53 55 54 51 56
24 24 26 26 28 28 27 25 25 25 26 30 30 32 32 36 39 40 41 35 32 34 34 34 35 39 41 47 43 42 45 40 35 42 46 49 47 49 54 55 54 53 51
Wind_Direction
26 16 10 8 6 2 360 358 354 351 345 341 337 330 328 325 321 317 314 312 308 301 299 290 281 274 246 236 242 254 249 237 229 225 229 233 239 237 230 227 229 234 231
21 14 12 11 8 6 3 360 358 354 350 346 342 337 332 326 323 317 313 307 306 304 300 295 286 281 266 257 244 241 254 248 228 220 226 227 234 232 231 228 227 229 232
15 10 11 9 6 3 0 358 355 352 349 345 340 335 329 324 320 317 312 307 303 301 298 294 289 282 277 268 259 245 235 253 247 238 213 207 222 228 229 227 228 227 229
16 7 5 4 359 357 354 352 349 348 345 343 341 337 334 329 324 320 316 311 307 301 296 292 288 283 276 271 265 256 251 248 244 245 239 223 219 212 216 224 228 227 228
359 355 354 352 351 349 348 346 344 342 340 339 338 336 331 326 322 319 315 312 307 301 296 292 286 282 277 272 271 266 261 255 254 244 247 230 218 216 225 226 223 226 228
330 339 340 340 341 344 342 341 338 338 336 335 333 330 328 326 323 320 316 313 310 305 297 293 288 281 279 273 266 265 264 262 253 240 242 252 232 220 221 226 224 221 224
316 328 333 337 339 339 339 338 338 337 335 332 330 327 325 322 320 319 316 313 310 308 302 294 289 284 278 277 272 265 263 260 258 255 248 246 247 238 228 222 225 228 229
303 320 329 334 335 335 335 335 334 332 332 330 326 324 323 319 316 313 312 308 306 304 303 299 292 286 281 276 275 269 265 263 261 255 247 242 236 235 219 225 218 223 229
283 311 322 327 330 331 331 330 330 329 328 327 325 323 321 318 314 310 308 305 302 301 299 297 294 289 285 280 275 273 267 265 263 259 254 249 241 245 241 236 223 220 222
279 304 317 325 328 327 326 327 326 326 326 325 324 322 321 318 313 309 306 301 301 299 296 295 292 290 286 282 277 272 270 267 263 262 259 254 244 246 237 239 232 226 226
291 310 319 324 324 325 325 326 326 326 326 325 325 323 321 318 314 309 306 304 300 298 296 292 290 287 286 282 279 275 271 269 266 261 260 255 251 242 237 234 228 224 225
294 308 315 320 321 323 326 327 328 327 327 326 325 325 322 317 312 309 308 306 302 299 294 291 287 287 285 283 280 278 272 268 266 263 259 256 253 248 243 243 231 228 231
301 310 313 319 322 323 326 327 328 327 327 327 327 326 323 318 313 310 309 307 304 300 296 291 286 286 286 284 281 277 273 270 266 265 261 258 255 253 246 241 240 237 239
310 318 317 319 323 325 326 326 327 328 328 328 328 327 325 320 317 313 310 306 303 300 296 292 287 285 285 282 280 277 274 271 268 264 262 260 255 252 249 243 234 240 234
315 318 319 321 325 325 324 324 326 328 328 327 328 328 326 324 321 317 311 308 303 299 295 292 286 285 285 283 282 279 278 277 274 267 262 261 257 252 249 248 241 242 230
312 318 318 319 322 323 324 324 326 328 327 326 327 329 329 328 326 322 316 311 306 301 297 291 287 285 284 283 281 278 276 274 273 271 268 262 259 254 249 245 239 236 237
319 318 318 318 320 322 323 323 324 325 326 326 328 331 331 329 328 327 322 315 310 306 301 295 291 285 283 284 283 281 277 275 272 269 267 264 260 258 253 247 244 238 238
319 318 317 316 316 320 319 317 321 324 326 327 331 335 331 329 330 328 327 324 320 314 308 298 292 287 285 285 285 283 280 277 275 271 268 262 260 256 253 250 249 243 239
317 316 315 314 315 320 319 318 321 324 326 329 333 335 334 331 331 330 330 329 327 316 305 301 295 290 289 286 287 288 281 278 274 271 267 264 258 256 251 248 247 242 247
315 314 313 314 317 318 319 320 321 325 328 331 331 335 336 332 331 331 333 333 325 319 313 305 300 296 294 291 290 291 282 281 275 273 270 262 255 252 249 247 242 244 234
313 317 312 312 317 320 320 321 323 325 327 329 331 335 336 334 334 334 337 333 331 330 326 320 318 313 309 300 297 292 283 281 278 271 268 263 257 250 246 242 241 237 230
314 312 310 312 317 321 321 321 323 324 326 329 332 336 336 337 337 340 337 335 338 333 327 323 324 318 315 307 304 294 288 282 277 272 268 262 258 252 245 241 243 238 232
308 309 308 310 314 320 320 320 322 322 327 330 332 335 338 338 343 338 340 338 341 331 326 325 318 318 319 315 311 303 295 286 279 273 268 260 253 252 245 239 241 242 234
308 310 307 308 310 317 319 321 324 322 325 329 332 337 339 338 341 343 343 340 338 331 328 321 320 318 319 320 316 311 305 298 287 278 268 255 248 248 242 239 239 237 234
305 305 306 306 307 312 316 321 323 321 323 328 332 337 340 340 341 342 341 340 338 326 321 320 321 321 319 323 321 318 312 307 294 281 265 252 241 240 238 231 232 230 228
303 301 303 303 306 311 313 320 322 319 323 328 332 334 332 341 342 340 340 344 341 341 345 342 331 330 330 330 330 328 325 318 309 291 257 241 238 233 225 222 222 223 221